When you browse on this site, cookies collect data to enhance your experience and personalize the content and advertising you see.
Visit our Privacy Policy to learn more. By continuing to use the site, you agree to this use of cookies and data.
  • en Belgique
  • Liste des pays
  • À 7 jours
  • Température de l'eau
  • Carte météo
  • Widgets météo
  • user-avatar
    Se connecter

    Météo par heure à Kaposvár

    Ce jour, 7 Avril, Mardi

    Heure Température Précipitation Vent Pression Humidité
    00:00 +7°C° 0 mm 2 m/s 759 mmHg 50%
    01:00 +5°C° 0 mm 3 m/s 759 mmHg 51%
    02:00 +5°C° 0 mm 3 m/s 759 mmHg 51%
    03:00 +4°C° 0 mm 3 m/s 759 mmHg 51%
    04:00 +4°C° 0 mm 3 m/s 759 mmHg 52%
    05:00 +5°C° 0 mm 3 m/s 759 mmHg 49%
    06:00 +5°C° 0 mm 4 m/s 760 mmHg 47%
    07:00 +6°C° 0 mm 4 m/s 760 mmHg 45%
    08:00 +8°C° 0 mm 5 m/s 760 mmHg 40%
    09:00 +10°C° 0 mm 5 m/s 760 mmHg 35%
    10:00 +13°C° 0 mm 6 m/s 760 mmHg 30%
    11:00 +14°C° 0 mm 5 m/s 760 mmHg 30%
    12:00 +15°C° 0 mm 5 m/s 760 mmHg 30%
    13:00 +16°C° 0 mm 5 m/s 760 mmHg 29%
    14:00 +16°C° 0 mm 5 m/s 759 mmHg 31%
    15:00 +17°C° 0 mm 4 m/s 759 mmHg 32%
    16:00 +17°C° 0 mm 4 m/s 759 mmHg 34%
    17:00 +14°C° 0 mm 3 m/s 759 mmHg 40%
    18:00 +13°C° 0 mm 2 m/s 759 mmHg 47%
    19:00 +10°C° 0 mm 2 m/s 759 mmHg 54%
    20:00 +10°C° 0 mm 1 m/s 759 mmHg 55%
    21:00 +9°C° 0 mm 1 m/s 759 mmHg 57%
    22:00 +9°C° 0 mm 1 m/s 759 mmHg 58%
    23:00 +8°C° 0 mm 1 m/s 759 mmHg 58%

    Demain, 8 Avril, Mercredi

    Heure Température Précipitation Vent Pression Humidité
    00:00 +8°C° 0 mm 1 m/s 759 mmHg 57%
    01:00 +6°C° 0 mm 0 m/s 759 mmHg 57%
    02:00 +6°C° 0 mm 0 m/s 759 mmHg 56%
    03:00 +6°C° 0 mm 0 m/s 759 mmHg 55%
    04:00 +7°C° 0 mm 1 m/s 759 mmHg 54%
    05:00 +8°C° 0 mm 1 m/s 759 mmHg 53%
    06:00 +9°C° 0 mm 1 m/s 759 mmHg 52%
    07:00 +10°C° 0 mm 1 m/s 759 mmHg 50%
    08:00 +12°C° 0 mm 1 m/s 759 mmHg 45%
    09:00 +14°C° 0 mm 1 m/s 758 mmHg 39%
    10:00 +16°C° 0 mm 2 m/s 758 mmHg 33%
    11:00 +17°C° 0 mm 2 m/s 758 mmHg 32%
    12:00 +18°C° 0 mm 2 m/s 757 mmHg 32%
    13:00 +18°C° 0 mm 2 m/s 757 mmHg 31%
    14:00 +18°C° 0 mm 2 m/s 756 mmHg 32%
    15:00 +18°C° 0 mm 2 m/s 755 mmHg 33%
    16:00 +18°C° 0 mm 2 m/s 755 mmHg 33%
    17:00 +16°C° 0 mm 2 m/s 755 mmHg 39%
    18:00 +14°C° 0 mm 2 m/s 754 mmHg 44%
    19:00 +12°C° 0 mm 1 m/s 754 mmHg 50%
    20:00 +12°C° 0 mm 1 m/s 754 mmHg 50%
    21:00 +11°C° 0 mm 1 m/s 755 mmHg 51%
    22:00 +9°C° 0 mm 0 m/s 755 mmHg 52%
    23:00 +9°C° 0 mm 0 m/s 754 mmHg 54%

    Après-demain, 9 Avril, Jeudi

    Heure Température Précipitation Vent Pression Humidité
    00:00 +8°C° 0 mm 0 m/s 754 mmHg 55%
    01:00 +8°C° 0 mm 0 m/s 754 mmHg 57%
    02:00 +7°C° 0 mm 0 m/s 754 mmHg 58%
    03:00 +7°C° 0 mm 0 m/s 753 mmHg 59%
    04:00 +7°C° 0 mm 0 m/s 753 mmHg 60%
    05:00 +8°C° 0 mm 0 m/s 753 mmHg 58%
    06:00 +9°C° 0 mm 0 m/s 753 mmHg 56%
    07:00 +10°C° 0 mm 0 m/s 753 mmHg 54%
    08:00 +12°C° 0 mm 0 m/s 753 mmHg 49%
    09:00 +15°C° 0 mm 1 m/s 753 mmHg 43%
    10:00 +19°C° 0 mm 1 m/s 753 mmHg 38%
    11:00 +20°C° 0 mm 1 m/s 753 mmHg 35%
    12:00 +20°C° 0 mm 1 m/s 752 mmHg 33%
    13:00 +21°C° 0 mm 1 m/s 752 mmHg 30%
    14:00 +21°C° 0 mm 1 m/s 752 mmHg 30%
    15:00 +21°C° 0 mm 1 m/s 751 mmHg 30%
    16:00 +21°C° 0 mm 1 m/s 751 mmHg 30%
    17:00 +19°C° 0 mm 1 m/s 751 mmHg 35%
    18:00 +16°C° 0 mm 1 m/s 750 mmHg 40%
    19:00 +14°C° 0 mm 1 m/s 750 mmHg 45%
    20:00 +13°C° 0 mm 1 m/s 751 mmHg 47%
    21:00 +13°C° 0 mm 1 m/s 751 mmHg 49%
    22:00 +12°C° 0 mm 1 m/s 751 mmHg 51%
    23:00 +12°C° 0 mm 2 m/s 751 mmHg 52%

    10 Avril, Vendredi

    Heure Température Précipitation Vent Pression Humidité
    00:00 +12°C° 0 mm 2 m/s 751 mmHg 53%
    01:00 +10°C° 0 mm 2 m/s 751 mmHg 54%
    02:00 +10°C° 0 mm 2 m/s 751 mmHg 55%
    03:00 +10°C° 0 mm 2 m/s 751 mmHg 56%
    04:00 +9°C° 0 mm 2 m/s 751 mmHg 56%
    05:00 +10°C° 0 mm 3 m/s 752 mmHg 61%
    06:00 +11°C° 0 mm 3 m/s 752 mmHg 65%
    07:00 +12°C° 0 mm 4 m/s 752 mmHg 69%
    08:00 +14°C° 0 mm 4 m/s 752 mmHg 63%
    09:00 +16°C° 0 mm 5 m/s 752 mmHg 56%
    10:00 +19°C° 0 mm 5 m/s 753 mmHg 49%
    11:00 +19°C° 0 mm 5 m/s 752 mmHg 48%
    12:00 +20°C° 0 mm 5 m/s 752 mmHg 46%
    13:00 +20°C° 0 mm 5 m/s 752 mmHg 44%
    14:00 +20°C° 0 mm 5 m/s 752 mmHg 45%
    15:00 +20°C° 0 mm 5 m/s 751 mmHg 45%
    16:00 +20°C° 0 mm 4 m/s 751 mmHg 46%
    17:00 +18°C° 0 mm 4 m/s 751 mmHg 52%
    18:00 +16°C° 0 mm 3 m/s 751 mmHg 58%
    19:00 +14°C° 0 mm 2 m/s 751 mmHg 63%
    20:00 +13°C° 0 mm 2 m/s 752 mmHg 64%
    21:00 +12°C° 0 mm 1 m/s 752 mmHg 65%
    22:00 +12°C° 0 mm 1 m/s 752 mmHg 65%
    23:00 +11°C° 0 mm 1 m/s 752 mmHg 66%

    11 Avril, Samedi

    Heure Température Précipitation Vent Pression Humidité
    00:00 +11°C° 0 mm 1 m/s 752 mmHg 66%
    01:00 +11°C° 0 mm 1 m/s 752 mmHg 67%
    02:00 +9°C° 0 mm 0 m/s 752 mmHg 68%
    03:00 +9°C° 0 mm 0 m/s 752 mmHg 69%
    04:00 +8°C° 0 mm 0 m/s 752 mmHg 70%
    05:00 +9°C° 0 mm 0 m/s 752 mmHg 68%
    06:00 +10°C° 0 mm 0 m/s 753 mmHg 65%
    07:00 +11°C° 0 mm 0 m/s 753 mmHg 63%
    08:00 +12°C° 0 mm 0 m/s 753 mmHg 59%
    09:00 +15°C° 0 mm 1 m/s 752 mmHg 55%
    10:00 +16°C° 0 mm 1 m/s 752 mmHg 51%
    11:00 +19°C° 0 mm 1 m/s 752 mmHg 47%
    12:00 +20°C° 0 mm 1 m/s 752 mmHg 44%
    13:00 +20°C° 0 mm 0 m/s 752 mmHg 40%
    14:00 +22°C° 0 mm 1 m/s 751 mmHg 41%
    15:00 +22°C° 0 mm 1 m/s 751 mmHg 42%
    16:00 +21°C° 0 mm 1 m/s 750 mmHg 43%
    17:00 +20°C° 0 mm 1 m/s 750 mmHg 48%
    18:00 +18°C° 0 mm 1 m/s 750 mmHg 54%
    19:00 +15°C° 0 mm 1 m/s 750 mmHg 60%
    20:00 +14°C° 0 mm 2 m/s 750 mmHg 62%
    21:00 +14°C° 0 mm 2 m/s 750 mmHg 63%
    22:00 +13°C° 0 mm 2 m/s 750 mmHg 65%
    23:00 +13°C° 0 mm 2 m/s 750 mmHg 67%

    12 Avril, Dimanche

    Heure Température Précipitation Vent Pression Humidité
    00:00 +13°C° 0 mm 2 m/s 750 mmHg 68%
    01:00 +12°C° 0 mm 2 m/s 750 mmHg 70%
    02:00 +12°C° 0 mm 2 m/s 750 mmHg 71%
    03:00 +10°C° 0 mm 2 m/s 750 mmHg 71%
    04:00 +10°C° 0 mm 2 m/s 749 mmHg 72%
    05:00 +12°C° 0 mm 2 m/s 749 mmHg 70%
    06:00 +13°C° 0 mm 2 m/s 749 mmHg 67%
    07:00 +14°C° 0 mm 2 m/s 750 mmHg 65%
    08:00 +16°C° 0 mm 2 m/s 749 mmHg 59%
    09:00 +18°C° 0 mm 3 m/s 749 mmHg 53%
    10:00 +21°C° 0 mm 3 m/s 749 mmHg 47%
    11:00 +22°C° 0 mm 3 m/s 748 mmHg 44%
    12:00 +23°C° 0 mm 4 m/s 748 mmHg 41%
    13:00 +25°C° 0 mm 4 m/s 747 mmHg 38%
    14:00 +25°C° 0 mm 4 m/s 747 mmHg 38%
    15:00 +25°C° 0 mm 4 m/s 746 mmHg 39%
    16:00 +23°C° 0 mm 4 m/s 746 mmHg 39%
    17:00 +22°C° 0 mm 4 m/s 746 mmHg 46%
    18:00 +20°C° 0 mm 4 m/s 745 mmHg 52%
    19:00 +18°C° 0 mm 4 m/s 745 mmHg 59%
    20:00 +17°C° 0 mm 4 m/s 745 mmHg 58%
    21:00 +17°C° 0 mm 4 m/s 745 mmHg 56%
    22:00 +15°C° 0 mm 4 m/s 746 mmHg 55%
    23:00 +14°C° 0 mm 4 m/s 745 mmHg 55%
    Voir plus